Thursday, July 31, 2014
07:28 UTC
  |  Log In   |  Register Free
Airport Search:

Vidalia Regional Airport
(KVDI)

Vidalia Regional Airport Diagram
No Airport Diagram Available

FAA data valid effective July 24, 2014 until September 18, 2014 (unless otherwise noted).

 
 
 
 
 
 
 
 
 
 
 
 
 
 

Current Aviation Weather for Vidalia Regional Airport (KVDI)

The most recent METAR observation for KVDI was updated at: 1835 UTC
METAR Summary (Translated METAR)
KVDI
281835Z AUTO 27006KT 10SM 33/24 A2989 RMK AO2 LTG DSNT W
KTBR
(36.6 nm NE from KVDI)
281835Z AUTO 26013G18KT 10SM SCT043 SCT055 SCT065 34/24 A2987 RMK AO2 LTG DSNT E T03420244
TAF
No TAF information found within 50 nm of KVDI
  Airport Weather Conditions for KVDI

 Current Weather at VDI
73° F

North winds at 0.0 mph
VDI NOAA Radar

Pressure: 30.00 in
Humidity: 94%
Wind: Calm
Dew Point: 71.6°F
Visibility: 10.00 mi


Airport Weather Forecast for KVDI

Translated METAR and TAF for KVDI
Translated METAR for KVDI (0722 UTC 31 July 2014)
found at http://aviationweather.gov/adds/metars/
 
METAR text: KVDI 310715Z AUTO 03003KT 10SM 23/22 A2999 RMK AO2
Conditions at: KVDI (VIDALIA MUNI , GA, US) observed 0715 UTC 31 July 2014
Temperature: 23.0°C (73°F)
Dewpoint: 22.0°C (72°F) [RH = 94%]
Pressure (altimeter): 29.99 inches Hg (1015.7 mb)
Winds: from the NNE (30 degrees) at 3 MPH (3 knots; 1.6 m/s)
Visibility: 10 or more miles (16+ km)
Ceiling: unknown
Clouds: missing
Weather: automated observation with no human augmentation;
there may or may not be significant weather present at this time
Translated TAF for KVDI

There is no translated TAF available for this airport

Find All Airport Services Find A Hotel Find A Rental Car Find A Golf Course Find A Restaurant $100 Hamburger



FBO's on the Field
FBO Company Facility Photos Services Transportation Aviation Fuel Prices: Prices include tax
Catering Weather Repair Courtesy Rental Type 100LL JetA JetA+ MOGAS 8087
 
Vidalia Regional Airport

This FBO has not yet been rated
FS:Phillips66
Last Updated: Jun-30
Login to update fuel prices
SS:
Contact Vidalia Regional AirportMore FBO Information
 
Add another FBO Facility Photos Catering Weather Repair Courtesy Rental Type 100LL JetA JetA+ MOGAS 8087
Services Transportation Aviation Fuel Prices: Prices include tax


GlobalAir.com Airport Resource Center model-print
model-print
model-print
model-print